Showing default

YAM-11, 68991

Orbit data source: Space-Track

YAM-11, 68991 is an American payload satellite in SSO that was launched on Sun, 03 May 2026 UTC via an FALCON 9 launch vehicle from the Air Force Western Test Range (AFWTR). Payload-class satellites include a variety of spacecraft equipped with specific instruments for various scientific and technological missions. These include communications satellites like Starlink; space stations such as the ISS; scientific satellites like the Hubble; Earth observation satellites from companies like Planet Labs, Umbra, and HawkEye 360; GPS; miniature CubeSats for education and research; and military/defense satellites.

Loading next visibility...
Identifier
68991, 2026-100M
Orbit
SSO
Country
Flag of USUS
Related business
Manufacturer
Airbus/Toulouse
Mission
Operational spacecraft
Bus & Motor
ARROW, Unknown motor
Mass
~150 kg wet, ~140 kg dry
Launch date (UTC)
2026-05-03 (2 months ago)
Launch vehicle
FALCON 9
Launch site
Air Force Western Test Range (AFWTR)
Object type
Payload
Rocket body
Debris
Shape & HBR
Unknown shape, 14.5 m
Radar Cross Section
Large (>1 m²)

Expand to show TLE details & history
Last TLE update: 13 hours ago

TLE from 13 hours ago
0 YAM-11
1 68991U 26100M   26175.30412053  .00001176  00000-0  12584-3 0  9999
2 68991  97.7363  72.5091 0011159  64.4160 295.8210 14.90549225  7759
Epoch: 2026-06-24T07:17Z
TLE epoch observation values (Epoch: 2026-06-24T07:17:56.013Z)
Latitude
-0.00007°
Longitude
50.56246°
Altitude
595.879 km
Speed
7.564 km/s
True Right ascension
04h 50m 02s
True Declination
0° 00' 00"
Sunlit
Object was in daylight at epoch
Visualization orbit readout
Latitude
Unknown
Longitude
Unknown
Altitude
Unknown
Speed
Unknown
Apparent Right ascension
Unknown
Apparent Declination
Unknown
Sunlit
N/A
Visualization observer readout
Local Sidereal Time
07:38:57
Azimuth
Unknown
Elevation
Unknown
Doppler factor
Unknown
Orbital elements
Apogee altitude
601.021 km
Perigee altitude
585.462 km
Semi-major axis
6,971.378 km
Eccentricity
0.00112
Inclination
97.7363°
RAAN
72.5091°
Arg. of periapsis
64.416°
True anomaly
295.70582°
Mean anomaly
295.821°
Eccentric anomaly
295.76342°
Mean motion
3.72877 °/min
Orbital period
96.55 mins
BSTAR
0.00012584
Loading maneuver chart data...
Computing Atmospheric mass density...
Loading historical data...
Loading historical data...
Loading historical data...
Loading historical data...
Loading historical data...
Loading historical data...
Loading historical data...

Documentation

Showing up to 5 results
|